DateTimeUTC,F1_A11,F1_S11,BsB_S11,BsG_S11,BsR_S11,BbsB_S11,BbsG_S11,BbsR_S11,BaB_A11,BaG_A11,BaR_A11,Tu_S11,T_S11,Uu_S11,U_S11,P_S11,T1_A11
2021-09-03T07:00:00Z,00000200,20000000,,,,,,,-000.12,0000.03,0000.01,19.8,26.4,08.2,05.5,0671.7,31.1
2021-09-03T07:01:00Z,00000200,20000000,,,,,,,-000.00,0000.15,0000.04,19.8,26.4,08.2,05.5,0671.7,31.2
2021-09-03T07:02:00Z,00000200,20000000,,,,,,,0000.04,0000.05,-000.07,19.8,26.5,08.2,05.5,0671.7,31.1
2021-09-03T07:03:00Z,00000200,60000000,,,,,,,0000.11,-000.25,-000.15,19.8,26.5,08.2,05.5,0671.7,31.2
2021-09-03T07:04:00Z,00000200,40000000,-000.17,0000.14,0000.11,-000.33,0000.06,-000.31,0000.29,0000.21,0000.14,19.9,26.3,08.3,05.7,0672.6,31.2
2021-09-03T07:05:00Z,00000200,00000000,-000.06,0000.13,-000.23,-000.12,0000.25,-000.12,-000.29,-000.14,0000.13,20.0,26.3,08.4,05.7,0672.7,31.1
2021-09-03T07:06:00Z,00000200,00000000,-000.47,-000.03,-000.05,-000.46,0000.24,-000.11,0000.26,0000.19,-000.19,20.0,26.3,08.4,05.7,0672.7,31.1
2021-09-03T07:07:00Z,00000200,00000000,0000.12,0000.19,-000.13,-000.32,-000.01,0000.01,-000.07,-000.02,0000.13,20.0,26.2,08.3,05.7,0672.7,31.2
2021-09-03T07:08:00Z,00000200,00000000,0000.31,0000.22,-000.02,-000.30,0000.15,-000.17,-000.01,-000.31,0000.10,20.0,26.2,08.3,05.7,0672.7,31.1
2021-09-03T07:09:00Z,00000200,00000000,-000.15,0000.10,-000.12,0000.18,0000.06,0000.11,-000.12,0000.20,-000.29,20.0,26.2,08.3,05.7,0672.7,31.1
2021-09-03T07:10:00Z,00000200,00000000,0000.33,0000.02,-000.06,-000.45,0000.12,-000.25,0000.03,-000.08,-000.09,20.0,26.3,08.4,05.7,0672.7,31.1
2021-09-03T07:11:00Z,00000200,00000000,-000.05,-000.06,-000.14,-000.47,0000.20,0000.03,-000.14,0000.27,0000.16,20.0,26.3,08.4,05.7,0672.7,31.1
2021-09-03T07:12:00Z,00000200,00000000,-000.07,-000.08,-000.05,-000.60,-000.09,0000.17,0000.24,-000.00,0000.14,20.0,26.2,08.4,05.7,0672.6,31.1
2021-09-03T07:13:00Z,00000200,00000000,-000.39,0000.11,0000.44,-000.67,0000.14,0000.12,-000.22,0000.04,0000.12,20.0,26.3,08.5,05.8,0672.7,31.1
2021-09-03T07:14:00Z,00000200,00000000,-000.03,0000.09,-000.23,-000.76,0000.30,-000.17,0000.26,-000.18,-000.24,20.0,26.2,08.4,05.8,0672.7,31.1
2021-09-03T07:15:00Z,00000200,00000000,0000.52,0000.07,0000.08,-000.04,0000.51,-000.33,-000.25,0000.18,0000.27,20.0,26.2,08.4,05.7,0672.7,31.1
2021-09-03T07:16:00Z,00000200,00000000,0000.94,0000.15,-000.36,-000.18,0000.14,0000.12,0000.31,0000.03,-000.14,20.0,26.3,08.4,05.7,0672.7,31.2
2021-09-03T07:17:00Z,00000200,00000000,0000.17,0000.09,-000.11,-000.12,0000.06,0000.11,-000.32,-000.04,0000.01,20.0,26.2,08.4,05.7,0672.7,31.1
2021-09-03T07:18:00Z,00000200,00000000,-000.13,-000.02,0000.14,0000.03,0000.17,-000.18,0000.19,0000.03,-000.07,20.0,26.2,08.4,05.7,0672.7,31.1
2021-09-03T07:19:00Z,00000200,00000000,0000.97,-000.03,-000.32,-000.40,0000.14,0000.05,-000.04,-000.06,0000.15,20.0,26.2,08.4,05.7,0672.7,31.2
2021-09-03T07:20:00Z,00000200,00000000,-000.33,0000.23,-000.17,-000.22,-000.07,0000.12,0000.09,0000.15,-000.10,20.0,26.2,08.4,05.8,0672.7,31.1
2021-09-03T07:21:00Z,00000200,00000000,0000.31,0000.29,-000.11,-000.58,0000.30,0000.13,-000.21,0000.04,0000.02,20.0,26.3,08.4,05.7,0672.7,31.1
2021-09-03T07:22:00Z,00000200,00000000,-000.17,0000.39,0000.04,-000.39,-000.03,-000.12,0000.33,-000.38,0000.03,20.0,26.2,08.3,05.7,0672.7,31.1
2021-09-03T07:23:00Z,00000200,00000000,0000.41,0000.14,0000.01,-000.42,0000.03,-000.07,-000.03,0000.20,0000.02,20.0,26.2,08.3,05.7,0672.7,31.1
2021-09-03T07:24:00Z,00000200,00000000,-000.65,0000.15,-000.16,-000.20,0000.20,-000.21,-000.30,-000.07,-000.01,20.0,26.2,08.3,05.7,0672.7,31.2
2021-09-03T07:25:00Z,00000200,00000000,0000.10,0000.34,0000.12,-000.16,0000.20,0000.09,0000.18,-000.17,-000.17,20.0,26.2,08.3,05.7,0672.7,31.1
2021-09-03T07:26:00Z,00000200,00000000,-000.26,-000.03,-000.17,-000.69,0000.33,-000.11,0000.04,0000.04,0000.10,20.0,26.2,08.2,05.7,0672.7,31.1
2021-09-03T07:27:00Z,00000200,00000000,-000.45,0000.01,0000.03,-000.00,0000.28,0000.22,-000.11,0000.45,-000.13,20.0,26.2,08.3,05.7,0672.6,31.1
2021-09-03T07:28:00Z,00000200,00000000,0000.13,0000.26,-000.26,-000.87,0000.26,-000.04,0000.15,-000.32,0000.22,20.0,26.3,08.2,05.6,0672.7,31.1
2021-09-03T07:29:00Z,00000200,00000000,0000.15,0000.35,-000.22,-000.19,0000.18,-000.25,-000.26,0000.09,-000.30,20.0,26.3,08.2,05.7,0672.7,31.1
2021-09-03T07:30:00Z,00000200,00000000,0000.16,0000.13,0000.15,-000.77,0000.16,-000.05,-000.05,-000.05,0000.01,20.0,26.3,08.2,05.7,0672.7,31.1
2021-09-03T07:31:00Z,00000200,00000000,0000.30,-000.07,0000.01,-000.45,-000.06,-000.04,-000.09,-000.17,0000.16,20.0,26.2,08.2,05.6,0672.7,31.1
2021-09-03T07:32:00Z,00000200,00000000,0000.12,0000.29,-000.35,-000.38,0000.10,-000.06,0000.02,0000.03,-000.18,20.0,26.2,08.1,05.6,0672.7,31.1
2021-09-03T07:33:00Z,00000200,00000000,0000.55,0000.25,0000.09,-000.33,-000.03,0000.03,0000.32,0000.11,0000.23,20.0,26.2,08.2,05.6,0672.7,31.1
2021-09-03T07:34:00Z,00000200,00000000,0000.15,0000.20,0000.08,-000.62,0000.31,-000.02,0000.03,0000.03,0000.02,20.0,26.3,08.1,05.6,0672.6,31.1
2021-09-03T07:35:00Z,00000200,00000000,0000.01,0000.24,-000.04,0000.12,-000.12,-000.02,-000.16,0000.11,-000.31,20.0,26.3,08.1,05.6,0672.6,31.1
2021-09-03T07:36:00Z,00000200,00000000,-000.44,0000.06,-000.03,0000.02,0000.16,-000.18,0000.23,-000.20,0000.28,20.0,26.3,08.0,05.5,0672.6,31.1
2021-09-03T07:37:00Z,00000200,00000000,0000.05,0000.02,-000.10,0000.15,0000.11,0000.33,-000.35,-000.30,0000.15,20.0,26.2,08.0,05.5,0672.6,31.1
2021-09-03T07:38:00Z,00000200,00000000,0000.32,-000.04,-000.33,-000.38,0000.09,-000.34,0000.19,0000.37,-000.35,20.0,26.2,08.1,05.6,0672.6,31.2
2021-09-03T07:39:00Z,00000200,00000000,-000.55,0000.38,-000.04,0000.08,0000.45,0000.03,-000.22,-000.17,0000.21,20.0,26.2,08.0,05.5,0672.6,31.1
2021-09-03T07:40:00Z,00000200,00000000,-000.67,-000.05,-000.03,-000.02,0000.43,-000.01,0000.14,0000.14,-000.09,20.0,26.2,08.1,05.5,0672.6,31.1
2021-09-03T07:41:00Z,00000200,00000000,-000.02,-000.22,-000.23,-000.49,0000.17,-000.07,0000.15,-000.01,0000.16,20.0,26.3,08.0,05.5,0672.6,31.2
2021-09-03T07:42:00Z,00000200,00000000,0000.26,0000.41,0000.25,-000.40,0000.50,0000.27,-000.01,0000.19,-000.02,20.0,26.2,08.0,05.5,0672.6,31.1
2021-09-03T07:43:00Z,00000200,00000000,0000.37,-000.00,0000.03,0000.02,-000.01,-000.03,-000.21,-000.18,-000.09,20.0,26.2,08.0,05.5,0672.6,31.1
2021-09-03T07:44:00Z,00000200,00000000,-000.06,0000.28,-000.01,-000.26,0000.05,-000.15,-000.02,0000.08,-000.19,20.0,26.2,08.0,05.5,0672.6,31.1
2021-09-03T07:45:00Z,00000200,00000000,-000.25,0000.47,-000.12,-000.03,0000.08,-000.05,0000.00,0000.05,0000.11,20.0,26.2,08.0,05.5,0672.6,31.1
2021-09-03T07:46:00Z,00000200,00000000,-000.48,0000.33,0000.02,-000.20,0000.28,-000.17,0000.01,-000.22,-000.25,20.0,26.2,07.9,05.4,0672.6,31.1
2021-09-03T07:47:00Z,00000200,00000000,0000.20,0000.13,0000.01,-000.10,0000.15,-000.15,0000.16,-000.04,0000.49,20.0,26.2,07.9,05.4,0672.6,31.1
2021-09-03T07:48:00Z,00000200,00000000,-000.01,0000.25,-000.24,-000.47,0000.22,-000.30,-000.22,-000.29,-000.18,20.0,26.2,07.9,05.4,0672.6,31.1
2021-09-03T07:49:00Z,00000200,00000000,0000.48,0000.14,0000.01,0000.02,0000.17,0000.13,0000.13,0000.36,-000.02,20.0,26.2,07.9,05.5,0672.6,31.2
2021-09-03T07:50:00Z,00000200,00000000,0000.52,-000.02,0000.17,0000.14,0000.07,0000.29,0000.04,0000.18,-000.15,20.0,26.2,07.9,05.4,0672.5,31.2
2021-09-03T07:51:00Z,00000200,00000000,-000.25,0000.33,-000.24,-000.21,0000.21,-000.10,0000.04,0000.19,0000.26,20.0,26.2,07.9,05.4,0672.5,31.1
2021-09-03T07:52:00Z,00000200,00000000,-000.37,0000.21,-000.29,-000.28,0000.26,0000.17,-000.26,-000.43,0000.18,20.0,26.2,07.8,05.4,0672.5,31.2
2021-09-03T07:53:00Z,00000200,00000000,-000.10,0000.13,0000.36,0000.18,0000.14,0000.09,-000.02,0000.14,-000.24,20.0,26.3,07.9,05.4,0672.5,31.1
2021-09-03T07:54:00Z,00000200,00000000,0000.08,-000.05,-000.22,0000.44,0000.28,0000.12,0000.22,-000.35,-000.11,20.0,26.2,07.9,05.4,0672.5,31.1
2021-09-03T07:55:00Z,00000200,00000000,-000.43,0000.03,-000.14,-000.40,0000.03,-000.04,0000.21,0000.29,0000.00,20.0,26.2,07.8,05.3,0672.5,31.1
2021-09-03T07:56:00Z,00000200,00000000,0000.72,0000.15,-000.16,0000.09,0000.24,-000.16,-000.16,0000.08,0000.25,20.1,26.2,07.8,05.4,0672.5,31.1
2021-09-03T07:57:00Z,00000200,40000000,,,,,,,0000.20,-000.19,-000.22,20.1,26.3,08.3,05.7,0672.6,31.1
2021-09-03T07:58:00Z,00000200,60000000,,,,,,,-000.31,0000.25,0000.13,19.8,26.4,07.8,05.2,0671.6,31.1
2021-09-03T07:59:00Z,00000200,20000000,,,,,,,-000.30,-000.09,-000.30,19.8,26.5,07.8,05.2,0671.5,31.1
